Karlovy Vary, Czech Republic

10:04 AM CET on February 10, 2016 (GMT +0100)
Karlovy Vary

Weather History for LKKV - January, 2013

Change the Weather History Date:

Thursday, January 31, 2013

  Actual Average (EDQM) Record (EDQM)
Temperature  
Mean Temperature 39 °F -  
Max Temperature 41 °F 32 °F 48 °F (2002)
Min Temperature 37 °F 25 °F 6 °F (1999)
Degree Days  
Heating Degree Days 26    
Moisture  
Dew Point 31 °F    
Average Humidity 74    
Maximum Humidity 87    
Minimum Humidity 61    
Precipitation  
Precipitation 0.00 in - - ()
Sea Level Pressure  
Sea Level Pressure 29.86 in    
Wind  
Wind Speed 13 mph ()    
Max Wind Speed 20 mph    
Max Gust Speed 38 mph    
Visibility 6.2 miles    
Events Rain    
Averages and records for this station are not official NWS values.
T = Trace of Precipitation, MM = Missing Value Source: Averaged Metar Reports

Daily Weather History Graph

Daily Weather History Graph

Search for Another Location

Airport or City:

Trip Planner

Search our weather history database for the weather conditions in past years. The results will help you decide how hot, cold, wet, or windy it might be!

Date:

Astronomy

Jan. 31, 2013 Rise Set
Actual Time 7:43 AM CET 5:00 PM CET
Civil Twilight 7:08 AM CET 5:35 PM CET
Nautical Twilight 6:29 AM CET 6:14 PM CET
Astronomical Twilight 5:51 AM CET 6:52 PM CET
Moon 10:20 PM CET (1/31) 9:02 AM CET (1/31)
Length of Visible Light 10h 26m
Length of Day
9h 16m
Waning Gibbous, 82% of the Moon is Illuminated
Jan 31
Waning Gibbous
Feb 3
Last Quarter
Feb 10
New
Feb 17
First Quarter
Feb 25
Full

Hourly Weather History & Observations

Time (CET) Temp. Windchill Dew Point Humidity Pressure Visibility Wind Dir Wind Speed Gust Speed Precip Events Conditions
12:00 AM 39.2 °F 31.2 °F 35.6 °F 87% 29.83 in 6.2 mi WSW 13.8 mph - N/A   Partly Cloudy
1:00 AM 39.2 °F 32.0 °F 35.6 °F 87% 29.86 in 6.2 mi WSW 11.5 mph 23.0 mph N/A   Scattered Clouds
2:00 AM 37.4 °F 28.9 °F 32.0 °F 81% 29.86 in 6.2 mi WSW 13.8 mph - N/A   Scattered Clouds
3:00 AM 39.2 °F 30.5 °F 32.0 °F 75% 29.89 in 6.2 mi WSW 16.1 mph 27.6 mph N/A   Mostly Cloudy
4:00 AM 39.2 °F 30.5 °F 32.0 °F 75% 29.89 in 6.2 mi WSW 16.1 mph - N/A   Mostly Cloudy
5:00 AM 39.2 °F 30.2 °F 32.0 °F 75% 29.92 in 6.2 mi WSW 17.3 mph 29.9 mph N/A   Mostly Cloudy
6:00 AM 37.4 °F 28.5 °F 32.0 °F 81% 29.92 in 6.2 mi WSW 15.0 mph - N/A   Mostly Cloudy
7:00 AM 37.4 °F 28.9 °F 32.0 °F 81% 29.92 in 6.2 mi WSW 13.8 mph 25.3 mph N/A Rain Light Rain
7:30 AM 37.4 °F 28.9 °F 32.0 °F 81% 29.92 in 6.2 mi WSW 13.8 mph - N/A   Mostly Cloudy
8:00 AM 37.4 °F 28.9 °F 32.0 °F 81% 29.95 in 6.2 mi WSW 13.8 mph 31.1 mph N/A   Mostly Cloudy
8:30 AM 37.4 °F 28.5 °F 30.2 °F 75% 29.95 in 6.2 mi WSW 15.0 mph - N/A   Scattered Clouds
9:00 AM 39.2 °F 30.2 °F 30.2 °F 70% 29.95 in 6.2 mi WSW 17.3 mph 29.9 mph N/A   Mostly Cloudy
9:30 AM 39.2 °F 31.2 °F 30.2 °F 70% 29.95 in 6.2 mi WSW 13.8 mph - N/A   Scattered Clouds
10:00 AM 39.2 °F 30.5 °F 30.2 °F 70% 29.95 in 6.2 mi WSW 16.1 mph - N/A   Scattered Clouds
10:30 AM 39.2 °F 30.5 °F 30.2 °F 70% 29.95 in 6.2 mi WSW 16.1 mph 27.6 mph N/A   Scattered Clouds
11:00 AM 39.2 °F 30.2 °F 30.2 °F 70% 29.95 in 6.2 mi WSW 17.3 mph 29.9 mph N/A   Scattered Clouds
11:30 AM 39.2 °F 31.2 °F 30.2 °F 70% 29.95 in 6.2 mi WSW 13.8 mph - N/A   Partly Cloudy
12:00 PM 39.2 °F 32.0 °F 30.2 °F 70% 29.95 in 6.2 mi WSW 11.5 mph - N/A   Scattered Clouds
12:30 PM 41.0 °F 34.7 °F 30.2 °F 65% 29.89 in 6.2 mi WSW 10.4 mph - N/A   Scattered Clouds
1:00 PM 41.0 °F 34.3 °F 30.2 °F 65% 29.86 in 6.2 mi SW 11.5 mph 23.0 mph N/A   Partly Cloudy
1:30 PM 41.0 °F 33.5 °F 28.4 °F 61% 29.86 in 6.2 mi SW 13.8 mph - N/A   Scattered Clouds
2:00 PM 41.0 °F 32.8 °F 28.4 °F 61% 29.86 in 6.2 mi SW 16.1 mph 28.8 mph N/A   Scattered Clouds
2:30 PM 41.0 °F 33.9 °F 28.4 °F 61% 29.83 in 6.2 mi SW 12.7 mph 24.2 mph N/A   Scattered Clouds
3:00 PM 41.0 °F 33.5 °F 28.4 °F 61% 29.80 in 6.2 mi SW 13.8 mph 32.2 mph N/A   Partly Cloudy
3:30 PM 41.0 °F 32.8 °F 28.4 °F 61% 29.80 in 6.2 mi WSW 16.1 mph 34.5 mph N/A   Partly Cloudy
4:00 PM 41.0 °F 32.8 °F 28.4 °F 61% 29.77 in 6.2 mi WSW 16.1 mph - N/A   Scattered Clouds
4:30 PM 41.0 °F 33.1 °F 28.4 °F 61% 29.77 in 6.2 mi WSW 15.0 mph 29.9 mph N/A Rain Light Rain
5:00 PM 41.0 °F 31.9 °F 30.2 °F 65% 29.77 in 6.2 mi WSW 19.6 mph 38.0 mph N/A Rain Light Rain
5:30 PM 39.2 °F 32.0 °F 32.0 °F 75% 29.77 in 6.2 mi WSW 11.5 mph 23.0 mph N/A Rain Light Rain
6:00 PM 39.2 °F 30.8 °F 32.0 °F 75% 29.77 in 6.2 mi WSW 15.0 mph - N/A   Mostly Cloudy
6:30 PM 39.2 °F 31.6 °F 33.8 °F 81% 29.77 in 6.2 mi SW 12.7 mph - N/A   Mostly Cloudy
7:00 PM 37.4 °F 28.9 °F 33.8 °F 87% 29.77 in 6.2 mi WSW 13.8 mph - N/A   Mostly Cloudy
7:30 PM 37.4 °F 29.3 °F 33.8 °F 87% 29.77 in 6.2 mi WSW 12.7 mph 24.2 mph N/A   Mostly Cloudy
8:00 PM 37.4 °F 30.3 °F 33.8 °F 87% 29.77 in 6.2 mi WSW 10.4 mph - N/A   Mostly Cloudy
9:00 PM 37.4 °F 28.5 °F 33.8 °F 87% 29.74 in 6.2 mi WSW 15.0 mph 26.5 mph N/A Rain Light Rain
10:00 PM 37.4 °F 28.5 °F 33.8 °F 87% 29.77 in 6.2 mi WSW 15.0 mph - N/A   Mostly Cloudy
11:00 PM 37.4 °F 29.3 °F 33.8 °F 87% 29.80 in 6.2 mi WSW 12.7 mph - N/A   Mostly Cloudy